Stations météo

réclame
Mon MeteoGroup
Aurillac, France (7549): Température de l'air & dewpoint: 29.07.2020 18:00:00 - 04.08.2020 18:00:00 (CEST)Aurillac, France (7549): Température de l'air 5cm: 29.07.2020 18:00:00 - 04.08.2020 18:00:00 (CEST)Aurillac, France (7549): Température de l'air -20cm & Température de l'air -100cm: 29.07.2020 18:00:00 - 04.08.2020 18:00:00 (CEST)Aurillac, France (7549): Vitesse du vent & gusts: 29.07.2020 18:00:00 - 04.08.2020 18:00:00 (CEST)Aurillac, France (7549): Direction du vent: 29.07.2020 18:00:00 - 04.08.2020 18:00:00 (CEST)Aurillac, France (7549): reduced air pressure: 29.07.2020 18:00:00 - 04.08.2020 18:00:00 (CEST)Aurillac, France (7549): visibility: 29.07.2020 18:00:00 - 04.08.2020 18:00:00 (CEST)Aurillac, France (7549): Ensoleillement: 29.07.2020 18:00:00 - 04.08.2020 18:00:00 (CEST)Aurillac, France (7549): Quantités de précipitations: 29.07.2020 18:00:00 - 04.08.2020 18:00:00 (CEST)
Date & Time tt [°C] td [°C] tt 5cm [°C] tt -20cm [°C] tt -100cm [°C] ff [km/h] ff [knt] fx [km/h] fx [knt] dd ppp [hPa] vv [km] sd [min] rr [mm]
04.08.2020 18:00:00 22,5 3,6 28,4 20,5 17,7 24 13 40 21 N 1014,9 57 60 0,0
04.08.2020 17:00:00 22,7 4,2 29,7 20,3 17,7 16 9 37 20 N 1014,9 43 60 0,0
04.08.2020 16:00:00 22,3 3,4 29,5 20,1 17,7 16 9 42 23 NW 1015,4 43 60 0,0
04.08.2020 15:00:00 21,6 2,8 29,1 20,1 17,7 16 9 41 22 NNW 1015,7 49 60 0,0
04.08.2020 14:00:00 20,9 3,1 27,7 20,0 17,7 19 10 41 22 NW 1016,3 46 60 0,0
04.08.2020 13:00:00 20,1 2,9 27,1 20,1 17,7 19 10 36 19 NW 1016,3 59 60 0,0
04.08.2020 12:00:00 19,0 4,7 24,0 20,2 17,7 16 9 36 20 NW 1016,7 60 60 0,0
04.08.2020 11:00:00 17,7 5,9 21,4 20,4 17,7 21 12 38 20 N 1017,0 60 60 0,0
04.08.2020 10:00:00 15,1 9,0 12,4 20,5 17,7 9 5 16 9 NW 1017,8 59 60 0,0
04.08.2020 09:00:00 10,7 10,4 10,1 20,7 17,7 4 2 7 4 W 1018,7 20 48 0,0
04.08.2020 08:00:00 8,6 8,6 3,5 20,9 17,7 4 2 10 5 E 1019,2 0,5 42 0,2
04.08.2020 07:00:00 7,0 6,7 2,7 21,0 17,7 7 4 9 5 E 1019,4 8 0 0,0
04.08.2020 06:00:00 9,1 9,0 3,0 21,2 17,7 5 3 6 4 WSW 1018,3 1,9 0 0,0
04.08.2020 05:00:00 9,4 9,1 3,9 21,4 17,7 4 2 6 3 W 1018,1 3,3 0 0,0
04.08.2020 04:00:00 10,3 9,5 5,0 21,5 17,7 4 2 8 4 W 1017,6 60 0 0,0
04.08.2020 03:00:00 11,4 10,0 7,0 21,6 17,7 5 3 16 9 W 1017,7 60 0 0,0
04.08.2020 02:00:00 12,4 10,3 7,8 21,7 17,7 3 2 14 8 WNW 1017,6 60 0 0,0
04.08.2020 01:00:00 13,4 10,7 8,9 21,7 17,7 5 3 11 6 W 1017,4 60 0 0,0
04.08.2020 00:00:00 14,8 10,6 13,0 21,7 17,7 3 2 13 7 NW 1016,9 49 0 0,2
03.08.2020 23:00:00 15,3 10,9 14,3 21,7 17,7 10 6 30 16 NNW 1016,5 60 0 0,0
03.08.2020 22:00:00 17,0 9,9 16,2 21,7 17,7 11 6 35 19 WNW 1015,4 60 0 0,0
03.08.2020 21:00:00 17,3 9,2 16,5 21,7 17,7 13 7 39 21 WNW 1014,8 60 28 0,0
03.08.2020 20:00:00 18,1 9,2 18,4 21,6 17,6 19 10 36 19 WNW 1014,3 60 5 0,0
03.08.2020 19:00:00 18,7 9,2 20,2 21,6 17,6 16 9 35 19 WNW 1014,0 56 0 0,0
03.08.2020 18:00:00 19,3 9,2 21,2 21,5 17,6 17 9 42 23 NW 1014,0 60 6 0,0
03.08.2020 17:00:00 20,7 8,7 22,6 21,4 17,6 21 11 40 22 WNW 1013,7 60 25 0,0
03.08.2020 16:00:00 19,5 8,5 21,1 21,4 17,6 16 9 39 21 WNW 1014,4 60 8 0,0
03.08.2020 15:00:00 20,3 7,3 23,8 21,4 17,6 20 11 40 22 WNW 1014,5 60 25 0,0
03.08.2020 14:00:00 19,7 8,1 22,9 21,4 17,6 19 10 38 20 NNW 1014,9 60 19 0,0
03.08.2020 13:00:00 20,1 8,7 20,9 21,5 17,6 15 8 44 24 NW 1014,9 58 13 0,0
03.08.2020 12:00:00 20,2 7,5 20,8 21,5 17,6 21 11 43 23 NNW 1015,1 20 31 0,0
03.08.2020 11:00:00 18,9 8,5 21,3 21,7 17,6 20 11 40 22 NW 1015,1 57 46 0,0
03.08.2020 10:00:00 18,4 11,0 17,2 21,8 17,6 8 5 21 11 WNW 1014,8 60 60 0,0
03.08.2020 09:00:00 15,0 11,8 12,4 22,0 17,6 7 4 14 8 WNW 1015,8 35 52 0,0
03.08.2020 08:00:00 12,5 10,7 9,8 22,2 17,6 4 2 10 5 W 1016,4 52 11 0,0
03.08.2020 07:00:00 11,8 10,2 9,6 22,3 17,6 5 3 13 7 WNW 1016,7 58 0 0,0
03.08.2020 06:00:00 12,3 10,5 8,8 22,5 17,6 5 3 11 6 NW 1016,5 60 0 0,0
03.08.2020 05:00:00 12,9 10,8 10,6 22,6 17,6 6 3 15 8 WNW 1016,3 60 0 0,0
03.08.2020 04:00:00 13,9 11,1 11,6 22,7 17,5 6 3 12 6 WNW 1016,5 60 0 0,0
03.08.2020 03:00:00 14,6 11,2 12,5 22,8 17,5 8 4 15 8 WNW 1016,6 60 0 0,0
03.08.2020 02:00:00 15,0 11,0 12,6 22,9 17,5 5 3 13 7 NW 1016,8 60 0 0,0
03.08.2020 01:00:00 15,8 11,2 13,2 23,0 17,5 6 4 13 7 NW 1016,8 60 0 0,0
03.08.2020 00:00:00 16,5 11,0 13,5 23,1 17,5 5 3 12 7 W 1016,8 60 0 0,0
02.08.2020 23:00:00 16,7 11,4 12,9 23,1 17,5 4 2 14 7 W 1017,0 60 0 0,0
02.08.2020 22:00:00 17,8 11,1 15,8 23,1 17,5 7 4 16 9 W 1016,7 60 0 0,0
02.08.2020 21:00:00 19,4 10,9 18,4 23,1 17,5 11 6 28 15 WNW 1015,7 60 37 0,0
02.08.2020 20:00:00 21,1 11,1 21,4 23,0 17,5 16 9 32 17 WNW 1014,9 60 55 0,0
02.08.2020 19:00:00 22,1 10,3 24,2 22,9 17,5 16 9 33 18 WNW 1014,8 58 44 0,0
02.08.2020 18:00:00 23,3 11,7 24,8 22,9 17,5 18 10 37 20 W 1014,9 43 49 0,0
02.08.2020 17:00:00 22,5 11,9 25,4 22,9 17,5 16 9 35 19 WNW 1015,2 60 38 0,0
02.08.2020 16:00:00 21,8 12,6 26,2 22,8 17,5 15 8 31 17 WNW 1015,9 60 47 0,0
02.08.2020 15:00:00 20,6 14,0 22,8 22,9 17,5 11 6 35 19 WNW 1016,7 58 12 0,0
02.08.2020 14:00:00 19,5 14,1 22,4 22,9 17,5 12 6 29 16 W 1017,5 58 6 0,0
02.08.2020 13:00:00 18,9 14,6 21,0 23,0 17,5 10 5 32 17 NW 1017,5 50 0 0,0
02.08.2020 12:00:00 19,0 14,0 23,2 23,0 17,5 16 9 29 15 WNW 1017,7 60 28 0,0
02.08.2020 11:00:00 19,6 14,2 22,9 23,1 17,5 12 7 23 12 WNW 1017,4 44 36 0,0
02.08.2020 10:00:00 19,5 14,5 20,8 23,2 17,4 12 6 22 12 WNW 1017,2 60 39 0,0
02.08.2020 09:00:00 17,8 14,7 17,7 23,4 17,4 4 2 16 9 NW 1017,6 58 44 0,0
02.08.2020 08:00:00 16,6 14,6 15,7 23,5 17,4 8 4 19 10 W 1018,1 60 23 0,0
02.08.2020 07:00:00 16,6 14,6 16,1 23,6 17,4 8 4 18 10 WNW 1018,0 60 0 0,0
02.08.2020 06:00:00 17,4 15,4 17,3 23,8 17,4 8 5 23 13 WNW 1017,8 60 0 0,0
02.08.2020 05:00:00 18,1 16,1 17,8 23,9 17,4 9 5 20 11 WNW 1017,7 60 0 0,0
02.08.2020 04:00:00 18,3 16,1 17,9 24,1 17,4 7 4 23 12 WNW 1017,6 60 0 0,0
02.08.2020 03:00:00 18,8 16,4 18,5 24,1 17,4 10 6 22 12 WNW 1017,9 60 0 0,0
02.08.2020 02:00:00 18,9 16,3 17,4 24,3 17,4 9 5 19 10 NW 1018,1 60 0 0,0
02.08.2020 01:00:00 19,2 16,1 17,9 24,4 17,4 6 4 14 7 WNW 1018,3 57 0 0,0
02.08.2020 00:00:00 19,3 16,0 16,4 24,4 17,4 7 4 16 9 NW 1018,3 47 0 0,0
01.08.2020 23:00:00 19,5 15,6 16,9 24,5 17,4 5 3 16 9 W 1018,4 46 0 0,0
01.08.2020 22:00:00 20,7 15,7 19,1 24,5 17,4 10 5 23 13 WNW 1018,0 36 0 0,0
01.08.2020 21:00:00 21,8 16,7 21,4 24,5 17,4 13 7 28 15 WNW 1017,2 35 48 0,0
01.08.2020 20:00:00 23,3 15,9 23,9 24,4 17,3 11 6 27 14 NW 1016,3 39 60 0,0
01.08.2020 19:00:00 24,4 15,6 25,1 24,3 17,3 13 7 34 18 NW 1015,9 47 50 0,0
01.08.2020 18:00:00 22,8 16,6 24,2 24,2 17,3 17 9 44 24 W 1016,3 43 5 0,0
01.08.2020 17:00:00 26,5 15,8 27,7 24,1 17,3 12 7 41 22 WNW 1014,4 47 34 0,0
01.08.2020 16:00:00 24,9 16,6 19,6 23,9 17,3 20 11 56 30 N 1014,7 12 15 1,8
01.08.2020 15:00:00 24,4 16,9 25,0 23,8 17,3 29 16 65 35 WNW 1016,5 13 35 0,0
01.08.2020 14:00:00 30,5 18,6 35,1 23,7 17,3 21 12 37 20 WNW 1013,5 33 57 0,0
01.08.2020 13:00:00 30,2 17,3 39,6 23,8 17,3 6 4 24 13 NW 1013,4 20 60 0,0
01.08.2020 12:00:00 29,1 17,3 36,5 23,8 17,3 7 4 16 8 WSW 1014,1 20 60 0,0
01.08.2020 11:00:00 27,2 17,7 30,5 24,0 17,3 6 3 14 8 WNW 1015,0 18 60 0,0
01.08.2020 10:00:00 25,1 17,6 24,1 24,1 17,3 3 2 8 4 N 1015,8 36 60 0,0
01.08.2020 09:00:00 21,8 17,4 19,4 24,3 17,3 4 2 10 6 SW 1016,8 20 60 0,0
01.08.2020 08:00:00 18,9 16,3 13,9 24,4 17,3 4 2 7 4 E 1017,2 20 60 0,0
01.08.2020 07:00:00 16,9 15,8 13,2 24,6 17,3 5 3 8 4 ENE 1017,9 17 0 0,0
01.08.2020 06:00:00 16,8 15,5 13,6 24,8 17,3 5 3 8 4 E 1017,4 17 0 0,0
01.08.2020 05:00:00 17,4 15,7 14,0 24,9 17,2 2 1 7 4 ESE 1017,0 18 0 0,0
01.08.2020 04:00:00 18,9 15,8 14,8 25,0 17,2 5 3 10 5 E 1016,5 25 0 0,0
01.08.2020 03:00:00 19,2 16,1 15,3 25,1 17,2 5 3 8 4 E 1016,6 23 0 0,0
01.08.2020 02:00:00 20,4 15,8 16,1 25,2 17,2 5 3 7 4 ESE 1016,6 26 0 0,0
01.08.2020 01:00:00 21,7 16,0 17,0 25,2 17,2 5 3 6 4 ENE 1016,2 27 0 0,0
01.08.2020 00:00:00 23,0 15,8 18,3 25,2 17,2 4 2 9 5 ESE 1015,5 30 0 0,0
31.07.2020 23:00:00 25,3 15,6 20,0 25,1 17,2 2 1 5 3 WNW 1014,8 32 0 0,0
31.07.2020 22:00:00 28,0 15,0 22,7 25,0 17,2 3 1 12 6 W 1013,6 18 0 0,0
31.07.2020 21:00:00 30,6 15,1 29,2 24,9 17,2 9 5 24 13 W 1012,2 38 41 0,0
31.07.2020 20:00:00 32,7 14,3 32,8 24,7 17,2 14 8 37 20 W 1011,2 38 60 0,0
31.07.2020 19:00:00 34,9 13,7 37,8 24,4 17,2 17 9 36 19 WSW 1010,3 45 60 0,0
31.07.2020 18:00:00 35,5 13,1 40,3 24,1 17,2 16 9 36 19 WSW 1010,3 20 60 0,0
31.07.2020 17:00:00 36,0 11,6 41,3 23,9 17,2 13 7 30 16 SSW 1010,3 20 60 0,0
31.07.2020 16:00:00 36,2 13,0 43,1 23,6 17,2 14 8 27 15 SSW 1010,5 31 60 0,0
31.07.2020 15:00:00 35,1 12,7 46,4 23,4 17,2 11 6 38 21 S 1010,7 27 60 0,0
31.07.2020 14:00:00 34,2 13,1 45,8 23,4 17,2 14 8 39 21 SSE 1011,1 23 60 0,0
31.07.2020 13:00:00 32,9 12,0 44,9 23,3 17,2 14 8 31 17 SE 1011,9 24 60 0,0
31.07.2020 12:00:00 31,3 11,7 39,0 23,4 17,2 16 8 38 21 ESE 1012,9 20 60 0,0
31.07.2020 11:00:00 29,5 11,1 33,9 23,5 17,1 19 10 37 20 SSE 1013,8 29 55 0,0
31.07.2020 10:00:00 28,3 12,2 27,2 23,6 17,1 14 7 25 14 ESE 1013,9 20 45 0,0
31.07.2020 09:00:00 27,1 13,4 20,9 23,8 17,1 13 7 23 12 SSE 1013,5 38 60 0,0
31.07.2020 08:00:00 21,7 13,6 15,7 23,9 17,2 10 5 14 7 E 1014,6 30 44 0,0
31.07.2020 07:00:00 18,8 13,6 14,5 24,0 17,1 11 6 20 11 E 1015,4 30 1 0,0
31.07.2020 06:00:00 19,6 13,8 14,5 24,2 17,1 16 8 24 13 E 1015,3 30 0 0,0
31.07.2020 05:00:00 19,5 14,5 16,1 24,3 17,1 18 10 26 14 E 1015,5 29 0 0,0
31.07.2020 04:00:00 19,1 15,2 15,3 24,4 17,1 13 7 18 10 E 1016,5 26 0 0,0
31.07.2020 03:00:00 19,6 14,8 15,4 24,4 17,1 8 5 13 7 E 1016,8 29 0 0,0
31.07.2020 02:00:00 20,7 14,6 16,9 24,5 17,1 6 3 18 10 SE 1016,6 33 0 0,0
31.07.2020 01:00:00 23,9 14,9 19,2 24,5 17,1 12 6 17 9 E 1015,5 34 0 0,0
31.07.2020 00:00:00 25,8 14,6 21,2 24,5 17,1 14 8 26 14 E 1014,9 37 0 0,0
30.07.2020 23:00:00 26,5 13,9 21,9 24,4 17,1 12 6 28 15 E 1014,2 40 0 0,0
30.07.2020 22:00:00 28,0 13,9 24,1 24,2 17,1 13 7 35 19 ESE 1013,0 38 0 0,0
30.07.2020 21:00:00 30,6 14,7 27,9 24,1 17,1 13 7 27 14 SSE 1011,7 41 53 0,0
30.07.2020 20:00:00 33,6 14,6 31,7 23,8 17,1 3 2 11 6 SE 1010,6 40 31 0,0
30.07.2020 19:00:00 35,4 13,5 39,2 23,5 17,1 5 3 21 11 WNW 1010,4 20 60 0,0
30.07.2020 18:00:00 35,4 14,1 40,8 23,2 17,1 8 4 23 13 SW 1010,7 37 58 0,0
30.07.2020 17:00:00 35,1 14,4 41,6 23,0 17,1 7 4 29 16 SW 1011,1 33 56 0,0
30.07.2020 16:00:00 35,0 14,8 43,5 22,7 17,1 10 5 26 14 SSW 1011,6 31 60 0,0
30.07.2020 15:00:00 33,5 16,8 44,5 22,5 17,1 7 4 29 15 ESE 1012,3 23 60 0,0
30.07.2020 14:00:00 32,7 16,1 43,1 22,4 17,0 8 5 23 12 SSW 1013,0 25 60 0,0
30.07.2020 13:00:00 31,8 16,1 42,8 22,4 17,0 9 5 22 12 S 1013,7 22 60 0,0
30.07.2020 12:00:00 30,7 17,0 41,3 22,4 17,1 9 5 22 12 S 1014,0 20 60 0,0
30.07.2020 11:00:00 29,3 17,2 35,8 22,5 17,0 11 6 23 12 SE 1014,4 20 60 0,0
30.07.2020 10:00:00 27,7 17,2 27,5 22,6 17,1 11 6 20 11 ESE 1014,7 49 60 0,0
30.07.2020 09:00:00 24,1 17,3 20,4 22,7 17,0 12 7 19 11 E 1015,6 54 60 0,0
30.07.2020 08:00:00 20,4 16,2 15,6 22,9 17,0 6 3 15 8 E 1016,4 60 60 0,0
30.07.2020 07:00:00 18,1 15,0 14,7 23,0 17,0 10 6 19 10 E 1017,0 31 2 0,0
30.07.2020 06:00:00 17,8 14,7 13,0 23,1 17,0 11 6 16 9 E 1016,9 35 0 0,0
30.07.2020 05:00:00 16,6 14,1 13,3 23,3 17,0 3 2 12 6 ESE 1017,3 37 0 0,0
30.07.2020 04:00:00 17,5 14,6 14,3 23,4 17,0 5 3 16 9 ESE 1016,9 42 0 0,0
30.07.2020 03:00:00 17,4 15,2 13,8 23,5 17,0 10 5 13 7 E 1016,9 37 0 0,0
30.07.2020 02:00:00 17,9 15,0 14,1 23,5 17,0 6 3 10 5 E 1017,1 42 0 0,0
30.07.2020 01:00:00 18,8 14,9 14,6 23,5 17,0 6 4 8 4 ESE 1017,1 46 0 0,0
30.07.2020 00:00:00 20,6 14,3 15,9 23,5 17,0 3 1 6 4 E 1016,7 49 0 0,0
29.07.2020 23:00:00 22,5 14,1 17,8 23,5 17,0 3 2 9 5 W 1016,1 57 0 0,0
29.07.2020 22:00:00 24,6 14,1 20,8 23,3 17,0 5 3 18 10 NW 1015,6 58 0 0,0
29.07.2020 21:00:00 26,5 14,9 25,0 23,2 17,0 8 4 18 10 WNW 1014,6 57 54 0,0
29.07.2020 20:00:00 28,5 15,1 28,9 23,0 17,0 9 5 22 12 WNW 1013,9 59 60 0,0
29.07.2020 19:00:00 29,8 14,0 33,6 22,8 17,0 10 5 22 12 W 1013,6 53 58 0,0
29.07.2020 18:00:00 29,8 14,4 36,8 22,5 17,0 10 5 21 11 NNW 1013,7 47 60 0,0

tt = Température de l'air
td = dewpoint
tt 5cm = Température de l'air 5cm
tt -20cm = Température de l'air -20cm
tt -100cm = Température de l'air -100cm
ff = Vitesse du vent
fx = gusts
dd = Direction du vent
ppp = reduced air pressure
vv = visibility
sd = Ensoleillement
rr = Quantités de précipitations

stations d'obs. à proximité